Current Version              Previous Version:    01  02  03  04  05  06  07  08  09  10  11  12  13  14  15  16  17  18  19  20  21  22  23  24  25  26  27  28  29  30  
   31  32  33  34  35  36  37  38  39  40  41  42  43  44  45  46  47  48  49  50  51  52  53  54  55  56  57  58  59  60  

[Printable]
271
ASUS44 KEWX 231710
RWRTX
SOUTH TEXAS REGIONAL WEATHER ROUNDUP
NATIONAL WEATHER SERVICE AUSTIN/SAN ANTONIO TX
1100 AM CST SUN NOV 23 2014

NOTE: "FAIR" INDICATED FEW OR NO CLOUDS BELOW 12,000 FEET WITH NO
SIGNIFICANT WEATHER AND/OR OBSTRUCTIONS TO VISIBILITY.

* - THESE STATIONS ARE NOT NWS OR FAA STATIONS...AND ARE NOT SUBJECT
    TO NWS AND FAA QUALITY CONTROL.

TXZ171-172-183>190-231800-
TEXAS HILL COUNTRY AND EDWARDS PLATEAU

CITY           SKY/WX    TMP DP  RH WIND       PRES   REMARKS
JUNCTION       SUNNY     71  38  29 W15G28    29.69F
*LLANO         SUNNY     72  46  40 W18       29.67F
BURNET         SUNNY     67  50  54 W12       29.66F
*HORSESHOE BAY SUNNY     74  43  33 W8G21     29.65F
*KERRVILLE     SUNNY     73  40  30 W18G24    29.70F
*FREDERICKSBRG SUNNY     71  40  32 W18G25    29.69F
*ROCKSPRINGS   SUNNY     72  36  26 MISG      29.75F
*BOERNE STAGE  SUNNY     72  45  37 W10G17    29.72S
*CASTROVILLE   SUNNY     71  49  47 W12G17    29.73S
HONDO          SUNNY     66  50  56 W9        29.73F
*UVALDE        SUNNY     70  50  49 W5        29.73F
DEL RIO        SUNNY     65  53  65 CALM      29.72F
LAUGHLIN AFB   SUNNY     66  56  72 CALM      29.72F
CARRIZO SPRGS  SUNNY     73  46  38 W7        29.71F
$$

TXZ173-191>194-202-209-217>225-228-231800-
CENTRAL AND SOUTH CENTRAL TEXAS

CITY           SKY/WX    TMP DP  RH WIND       PRES   REMARKS
GEORGETOWN     NOT AVBL
AUSTIN/BERGSTM SUNNY     73  51  46 SW15      29.64F
AUSTIN/MABRY   SUNNY     73  54  51 CALM      29.65F
*AUSTIN/EXEC   SUNNY     72  50  46 W13G18    29.64F
*LAGO VISTA    SUNNY     68  54  61 W7        29.66F
SAN MARCOS     SUNNY    N/A N/A N/A W18G25    29.67F
NEW BRAUNFELS  SUNNY     73  52  47 W13       29.67F
RANDOLPH AFB   SUNNY     71  48  43 W12       29.68F
PT SAN ANTONIO SUNNY     71  53  53 W14       29.69F
SAN ANTONIO    SUNNY     72  50  45 SW12      29.69F
STINSON FIELD  SUNNY     70  53  54 SW9       29.69F
*PLEASANTON    SUNNY     70  51  51 SW7       29.72F
*LA GRANGE     SUNNY     72  56  58 W8        29.64F
*GIDDINGS      SUNNY     70  54  56 W9        29.67F
*GONZALES      SUNNY     70  58  65 SW10      29.68F
$$

TXZ163>164-176>182-195>201-210>213-226-227-235-231800-
SOUTHEAST TEXAS

CITY           SKY/WX    TMP DP  RH WIND       PRES   REMARKS
COLLEGE STN    SUNNY     69  57  65 SW14      29.62F
*BRYAN         SUNNY     70  57  63 SW10G18   29.63F
*CALDWELL      SUNNY     68  55  64 SW13      29.65F
*CROCKETT      MOSUNNY   68  63  83 SW9       29.61F
*BRENHAM       SUNNY     72  56  57 SW13G23   29.65F
HUNTSVILLE     SUNNY     68  57  68 SW10G20   29.61F
CONROE         SUNNY     67  58  72 SW9       29.64F
HOUSTON BUSH   SUNNY     70  57  63 SW9G20    29.65F
HOUSTON HOBBY  SUNNY     69  57  65 SW14      29.66F
*HOUSTON SW AP SUNNY     60  50  69 SW13G22   29.68F
PEARLAND       SUNNY     70  57  63 SW10      29.68F
HOUSTON HOOKS  SUNNY     70  59  68 SW13G20   29.64F
ELLINGTON FLD  SUNNY     70  57  64 SW18      29.68F
SUGAR LAND     SUNNY     71  57  61 SW14G20   29.66F
*HOUSTON EXEC  SUNNY     70 N/A N/A SW13      29.66F
*CLEVELAND MUN NOT AVBL
*WHARTON       SUNNY     70  59  69 SW14      29.69F
*COLUMBUS      FAIR      70  58  64 SW10      29.66F
$$

TXZ214>216-236>238-231800-
THE UPPER TEXAS COAST

CITY           SKY/WX    TMP DP  RH WIND       PRES   REMARKS
*ORANGE        SUNNY     68  59  72 SW12G20   29.66F
PORT ARTHUR    SUNNY     70  59  68 SW16G22   29.65F
GALVESTON      SUNNY     69  60  73 SW18G25   29.69F
ANGLETON       SUNNY     70  60  70 W8G18     29.67F
*BAY CITY        N/A     72  61  67 SW15      29.69F
PALACIOS       SUNNY     71  60  68 SW15      29.70F
$$

TXZ229>234-239>247-231800-
TEXAS COASTAL BEND AND RIO GRANDE PLAINS

CITY           SKY/WX    TMP DP  RH WIND       PRES   REMARKS
VICTORIA       SUNNY     74  57  55 SW14      29.70F
*BEEVILLE      SUNNY     74  52  46 W8        29.72F
ROCKPORT       SUNNY     71  57  61 SW9       29.72F
*PORT ARANSAS  SUNNY     69  60  73 SW7       29.73F
*PORT LAVACA   SUNNY     71  62  73 SW15      29.71F
*INGLESIDE     SUNNY     70  58  65 SW10      29.72F
CORPUS CHRISTI SUNNY     71  60  68 SW9       29.73F
CORPUS NAS     SUNNY     73  60  63 SW10      29.72F
*ROBSTOWN      SUNNY     71  62  73 SW8       29.73F
ALICE          SUNNY     75  57  53 SW10      29.72F
KINGSVILLE NAS NOT AVBL
COTULLA        SUNNY     77  50  38 CALM      29.71F
*FAITH RANCH   SUNNY     75  45  33 SW10G17   29.74F
LAREDO         SUNNY     75  51  42 SW6       29.77F
$$

TXZ248>255-231800-
DEEP SOUTH TEXAS

CITY           SKY/WX    TMP DP  RH WIND       PRES   REMARKS
BROWNSVILLE    SUNNY     75  69  81 SW8       29.79F
PORT ISABEL      N/A     73  67  81 S8        29.78F
*SOUTH PADRE   SUNNY    N/A N/A N/A SW3       29.78F
HARLINGEN      SUNNY     72  67  84 S6        29.77F
*HEBBRONVILLE  SUNNY     76  47  36 SW9       29.75F
MCALLEN        SUNNY     76  65  68 S3        29.78F
*WESLACO       SUNNY     76  62  61 S6        29.77F
FALFURRIAS     SUNNY     75  58  55 SW8       29.74F
EDINBURG       SUNNY     76  62  61 SW8       29.77F
*ZAPATA        SUNNY     72  54  53 S7        29.75
$$

TXZ213>215-236>238-242>244-246-247-251-254-255-231800-
CMAN STATIONS

STATION/POSITION TIME  TEMP    WIND        PRES    WAVE
                       AIR SEA DIR/SP/G            HT/PER
                 (UTC) (F)     (DEG/KT/KT) (MB)    (FT/S)
SABINE PASS      1700   65 60  240/ 12/ 21 1004.1
SEA RIM ST PARK  1700   63     230/ 14/ 20 1005.1
NORTH JETTY/GLS  1700   67 60  260/ 17/ 20   N/A
EAGLE POINT      1700   69 58  260/  9/ 14 1004.5
MORGANS POINT    1700   69     240/ 13/ 18 1004.1
MISSION/ARANSAS  1600          240/  9     1008.0
PORT O`CONNOR    1700          220/ 12/ 17   N/A
PORT ARANSAS     1700   67 62  200/ 10/ 11 1007.0
MALAQUITE BEACH  1700   70 67  210/  9/ 11 1006.4
BAFFIN BAY       1700   67 75  230/  2/  4 1007.0
PORT ISABEL      1700   70 66  200/  6/  7 1008.4
$$

GMZ080-GMZ150>470-231800-
OFFSHORE BUOY REPORTS

STATION/POSITION TIME  TEMP    WIND        PRES    WAVE
                       AIR SEA DIR/SP/G            HT/PER
                 (UTC) (F)     (DEG/KT/KT) (MB)    (FT/S)
20 E GALVESTON   1700   63 61  230/ 16/ 17 1004.7    5/ 7
90 E PT ARANSAS  1700   73 73  220/ 16/ 19 1007.0    6/ 7
35 NE PT MANSFLD 1700   72 74  230/ 12/ 14 1007.7    7/ 8
200 E PT ISABEL  1700   71 75  150/ 14/ 16 1009.2    6/ 7
$$